Preview of NWS' New Version of Forecast
This preview is not operational and should not be used for support decisions.

Regional Weather Roundup (RWR)

Issued by National Weather Service (NWS)

                            
000
ASUS44 KMEG 181110
RWRTN 
TENNESSEE HOURLY STATE WEATHER ROUNDUP
NATIONAL WEATHER SERVICE MEMPHIS TN
600 AM CDT SUN AUG 18 2019

TNZ002-004-019-021-049-052-054-088>092-181200-
WEST TENNESSEE
  
CITY           SKY/WX    TMP DP  RH WIND       PRES   REMARKS
MEMPHIS INTL   FAIR      76  70  82 S7        29.93R                  
NWS MEMPHIS      N/A     74 N/A N/A MISG        N/A                   
JACKSON        FAIR      70  68  93 CALM      29.96R                  
DYERSBURG      FAIR      70  70 100 S3        29.95R                  
SOMERVILLE     CLEAR     72  68  88 CALM      29.94R                  
COVINGTON      CLEAR     68  68 100 CALM      29.94R                  
UNION CITY     CLEAR     70  68  94 MISG      29.94R                  
BOLIVAR        CLEAR     68  66  94 CALM      29.95R                  
PARIS          CLEAR     66  66 100 CALM      29.97R                  
HUNTINGDON     PTCLDY    68  66  94 CALM      29.97R                  
LEXINGTON      CLEAR     68  66  94 CALM      29.96R FOG              
SELMER         CLEAR     70  68  94 S5        29.96R                  
SAVANNAH       CLEAR     68  68 100 CALM      29.96R                  
$$

TNZ008-025-027-028-033-062-065-066-181200-
NORTH MIDDLE TENNESSEE
  
CITY           SKY/WX    TMP DP  RH WIND       PRES   REMARKS
NASHVILLE      FAIR      71  67  87 CALM      29.99R                  
DICKSON        SUNNY     70  66  88 CALM      29.98R                  
PORTLAND       CLEAR     70  68  94 CALM      29.98R                  
CLARKSVILLE    FAIR      68  68 100 CALM      29.97R FOG              
LEBANON        SUNNY     68  66  94 CALM      29.97R                  
SMYRNA         FOG       68  68 100 CALM      29.99R VSB 1            
MURFREESBORO   SUNNY     70  68  94 CALM      29.97R                  
COOKEVILLE     CLEAR     63  61  94 CALM      30.01R FOG              
LIVINGSTON     SUNNY     70  64  83 CALM      30.02R                  
GALLATIN       SUNNY     68  66  94 CALM      30.01R                  
CROSSVILLE     FAIR      64  62  93 CALM      30.06R                  
ROCKWOOD       SUNNY     66  64  94 CALM      30.04S                  
$$

TNZ061-075-076-078-094-096-097-181200-
SOUTH MIDDLE TENNESSEE
  
CITY           SKY/WX    TMP DP  RH WIND       PRES   REMARKS
LAWRENCEBURG   MOSUNNY   66  64  94 CALM      29.98R FOG              
LEWISBURG      PTSUNNY   64  63  94 CALM      29.97R                  
FAYETTEVILLE   CLEAR     70  64  83 S5        29.98R                  
TULLAHOMA      CLEAR     66  64  94 CALM      29.99R                  
WINCHESTER     CLEAR     70  64  83 CALM      30.00R                  
MCMINNVILLE    CLEAR     64  64 100 CALM      30.00R                  
COLUMBIA       CLOUDY    66  66 100 CALM      29.96R                  
SHELBYVILLE    CLEAR     68  66  94 CALM      29.98R                  
$$

TNZ017-018-042-046-047-181200-
NORTHEAST TENNESSEE
  
CITY           SKY/WX    TMP DP  RH WIND       PRES   REMARKS
TRI CITIES     FAIR      65  63  93 CALM      30.07R                  
ELIZABETHTON   FAIR      66  63  88 VRB3      30.07R                  
GREENEVILLE    SUNNY     70  64  83 CALM      30.06R                  
$$

TNZ012-013-036-069-073-074-181200-
CENTRAL EAST TENNESSEE
  
CITY           SKY/WX    TMP DP  RH WIND       PRES   REMARKS
KNOXVILLE      FAIR      69  65  86 NE3       30.02R                  
OAK RIDGE      FAIR      69  66  90 CALM      30.04R                  
DOWNTOWN KNOXV CLEAR     66  66 100 CALM      30.03R FOG              
GATLINBURG     CLEAR     66  64  94 CALM      30.03R                  
MORRISTOWN     CLEAR     68  66  94 CALM      30.04R                  
JACKSBORO      CLEAR     66  64  94 CALM      30.07R FOG              
$$

TNZ083-085-099-181200-
SOUTHEAST TENNESSEE
  
CITY           SKY/WX    TMP DP  RH WIND       PRES   REMARKS
CHATTANOOGA    FAIR      71  68  90 CALM      30.01R                  
DAYTON         MOSUNNY   66  66 100 CALM      30.00R                  
$$

SKY/WX REPORTED AS FAIR MEANS FEW OR NO CLOUDS BELOW
12 THOUSAND FEET.